AI4ZL Weather Reports


time (UTC)temp
C
wind
direction
speed
KPH
gust
KPH
rain 1hr
cm
rain 24hr
cm
rain mn
cm
humidity
%
barometer
mb
20260504001041 20 188 4.8 9.7 0.00 0.00 0.00 42 1014.3
20260504000026 20 218 4.8 11.3 0.00 0.00 0.00 42 1014.4
20260503235031 20 195 4.8 11.3 0.00 0.00 0.00 42 1014.3
20260503234019 20 188 6.4 12.9 0.00 0.00 0.00 41 1014.2
20260503233024 21 209 6.4 14.5 0.00 0.00 0.00 41 1014.5
20260503232029 21 234 6.4 16.1 0.00 0.00 0.00 40 1014.9
20260503231017 21 237 6.4 17.7 0.00 0.00 0.00 39 1014.8
20260503230022 21 203 6.4 17.7 0.00 0.00 0.00 40 1015.1
20260503225027 21 194 4.8 20.9 0.00 0.00 0.00 40 1015.2
20260503224032 21 223 8.0 24.1 0.00 0.00 0.00 39 1015.1
20260503223020 21 213 4.8 14.5 0.00 0.00 0.00 40 1015.3
20260503222045 21 175 6.4 14.5 0.00 0.00 0.00 41 1015.6
20260503221050 21 234 6.4 12.9 0.00 0.00 0.00 41 1015.7
20260503220017 21 221 8.0 17.7 0.00 0.00 0.00 41 1015.8
20260503215023 21 197 6.4 14.5 0.00 0.00 0.00 41 1016.1
20260503214124 21 222 6.4 12.9 0.00 0.00 0.00 41 1016.3
20260503213032 21 203 9.7 17.7 0.00 0.00 0.00 40 1016.5
20260503212021 21 225 4.8 12.9 0.00 0.00 0.00 42 1016.4
20260503211046 21 212 8.0 22.5 0.00 0.00 0.00 42 1017.1
20260503210030 21 227 11.3 22.5 0.00 0.00 0.00 42 1017.0
20260503205019 21 206 6.4 20.9 0.00 0.00 0.00 43 1017.1
20260503204023 21 188 8.0 24.1 0.00 0.00 0.00 43 1017.3
20260503203028 21 213 9.7 22.5 0.00 0.00 0.00 43 1017.7
20260503202017 21 231 8.0 22.5 0.00 0.00 0.00 43 1017.9
20260503201021 21 214 6.4 9.7 0.00 0.00 0.00 43 1018.1
20260503200027 20 212 8.0 17.7 0.00 0.00 0.00 42 1018.5
20260503195031 20 249 14.5 27.4 0.00 0.00 0.00 41 1018.6
20260503194019 20 203 6.4 12.9 0.00 0.00 0.00 44 1019.1
20260503193024 20 231 9.7 22.5 0.00 0.00 0.00 44 1019.0
20260503192029 20 243 6.4 14.5 0.00 0.00 0.00 46 1019.2
20260503191018 20 240 6.4 17.7 0.00 0.00 0.00 45 1019.4
20260503190022 20 227 4.8 11.3 0.00 0.00 0.00 47 1019.7
20260503185027 19 199 6.4 14.5 0.00 0.00 0.00 47 1019.9
20260503184033 19 244 11.3 22.5 0.00 0.00 0.00 47 1020.2
20260503183020 18 237 8.0 20.9 0.00 0.00 0.00 46 1020.6
20260503182025 19 264 11.3 24.1 0.00 0.00 0.00 46 1020.8
20260503181030 19 191 8.0 17.7 0.00 0.00 0.00 46 1020.7
20260503180018 18 252 4.8 16.1 0.00 0.00 0.00 47 1021.1
20260503175022 18 224 8.0 22.5 0.00 0.00 0.00 48 1021.1
20260503174109 18 263 4.8 14.5 0.00 0.00 0.00 48 1021.4
20260503173113 18 244 8.0 20.9 0.00 0.00 0.00 47 1021.2
20260503172021 17 205 4.8 11.3 0.00 0.00 0.00 49 1021.4
20260503171025 18 222 6.4 12.9 0.00 0.00 0.00 50 1021.4
20260503160106 16 222 6.4 14.5 0.00 0.00 0.00 54 1022.4
20260503131026 9 16 0.0 4.8 0.00 0.00 0.00 99 1022.5
20260503081039 3 0.0 0.0 0.00 0.00 0.00 99 1021.7
20260503080107 3 0.0 0.0 0.00 0.00 0.00 99 1021.7
20260503072030 3 0.0 0.0 0.00 0.00 0.00 99 1021.7
20260503071018 3 0.0 0.0 0.00 0.00 0.00 99 1021.7
20260503055023 5 0.0 0.0 0.00 0.00 0.00 99 1021.6
20260503054029 4 0.0 0.0 0.00 0.00 0.00 99 1021.6
20260503053016 4 0.0 0.0 0.00 0.00 0.00 99 1021.7
20260503052021 5 0.0 0.0 0.00 0.00 0.00 99 1021.7
20260503051026 5 0.0 0.0 0.00 0.00 0.00 99 1021.6
20260503050052 5 0.0 0.0 0.00 0.00 0.00 98 1021.5
20260503045019 5 0.0 0.0 0.00 0.00 0.00 98 1021.5
20260503044024 5 0.0 0.0 0.00 0.00 0.00 98 1021.6
20260503043029 5 0.0 0.0 0.00 0.00 0.00 98 1021.5
20260503042017 6 0.0 0.0 0.00 0.00 0.00 98 1021.4
20260503041043 5 0.0 0.0 0.00 0.00 0.00 98 1021.4
20260503040027 5 0.0 0.0 0.00 0.00 0.00 97 1021.3
20260503035032 6 0.0 0.0 0.00 0.00 0.00 97 1021.4
20260503034020 6 0.0 0.0 0.00 0.00 0.00 97 1021.5
20260503033024 6 0.0 0.0 0.00 0.00 0.00 97 1021.5
20260503032030 6 0.0 0.0 0.00 0.00 0.00 96 1021.4
20260503031018 6 0.0 0.0 0.00 0.00 0.00 96 1021.5
20260503030023 6 0.0 0.0 0.00 0.00 0.00 95 1021.5
20260503025048 7 0.0 0.0 0.00 0.00 0.00 94 1021.5
20260503024032 7 0.0 0.0 0.00 0.00 0.00 94 1021.4
20260503023102 7 0.0 0.0 0.00 0.00 0.00 93 1021.4
20260503022047 7 0.0 0.0 0.00 0.00 0.00 92 1021.2
20260503021030 7 0.0 0.0 0.00 0.00 0.00 91 1021.3
20260503020039 8 0.0 0.0 0.00 0.00 0.00 90 1021.1
20260503015023 8 0.0 0.0 0.00 0.00 0.00 89 1021.1
20260503014049 8 0.0 0.0 0.00 0.00 0.00 86 1021.0
20260503013016 8 0.0 0.0 0.00 0.00 0.00 83 1020.8
20260503012042 9 0.0 0.0 0.00 0.00 0.00 82 1020.8
20260503011026 10 0.0 0.0 0.00 0.00 0.00 80 1020.7
20260503010031 10 0.0 0.0 0.00 0.00 0.00 76 1020.6
20260503005019 11 0.0 0.0 0.00 0.00 0.00 74 1020.6
20260503004024 11 0.0 0.0 0.00 0.00 0.00 72 1020.4
20260503003049 12 0.0 0.0 0.00 0.00 0.00 69 1020.5
20260503002017 13 0.0 0.0 0.00 0.00 0.00 65 1020.4